Flag for U.S.A. Weather past 2 weeks in Vevay, Indiana, U.S.A.

Now
28 °F

Clear.


Feels Like: 24 °F
Forecast: 26 / 55 °F
Wind: 3 mph from East

Location: Cincinnati / Northern Kentucky International Airport


UV Index: 5 (Moderate)

Visibility: 10 mi


Pressure: 30.35 "Hg

Humidity: 66%

Dew point: 18 °F

Location of VevayLocation

Historic Weather in Vevay

°F

Vevay temperature yesterday

Maximum temperature yesterday: 40 °F (at 3:52 PM)
Minimum temperature yesterday: 31 °F (at 10:52 PM)
Average temperature yesterday: 35 °F

Past Weeks' High & Low Weather Summary

 TemperatureHumidityPressure
High80 °F (Apr 13, 3:52 PM)100% (Apr 3, 7:52 AM)30.32 "Hg (Apr 3, 7:52 AM)
Low29 °F (Apr 16, 3:52 AM)17% (Apr 1, 4:52 PM)29.35 "Hg (Apr 7, 5:52 PM)
Average55 °F64%29.91 "Hg
* Reported Apr 1 3:52 AM — Apr 16 3:52 AM, Vevay, Weather by CustomWeather, © 2014

Note: Actual official high and low records may vary slightly from our data, if they occured in-between our weather recording intervals... More about our weather records

Advertising

Historic Weather Conditions — Data for Previous 24 hours

 ConditionsComfort  
Time TempWeatherWind HumidityBarometerVisibility
3:52 AM
Apr 16
29 °FClear.5 mph61%30.32 "Hg10 mi
2:52 AM31 °FPassing clouds.7 mph54%30.30 "Hg10 mi
1:52 AM31 °FClear.7 mph57%30.28 "Hg10 mi
12:52 AM32 °FClear.6 mph52%30.27 "Hg10 mi
11:52 PM
Apr 15
31 °FClear.6 mph59%30.26 "Hg10 mi
10:52 PM31 °FClear.6 mph61%30.26 "Hg10 mi
9:52 PM32 °FClear.6 mph56%30.25 "Hg10 mi
8:52 PM34 °FPassing clouds.8 mph50%30.22 "Hg10 mi
7:52 PM36 °FScattered clouds.17 mph44%30.19 "Hg10 mi
6:52 PM37 °FScattered clouds.15 mph42%30.17 "Hg10 mi
5:52 PM38 °FPartly sunny.16 mph46%30.14 "Hg10 mi
4:52 PM38 °FMostly cloudy.15 mph48%30.12 "Hg10 mi
3:52 PM40 °FMostly cloudy.14 mph45%30.11 "Hg10 mi
2:52 PM37 °FLight snow. Overcast.17 mph52%30.11 "Hg9 mi
1:52 PM37 °FMore clouds than sun.17 mph52%30.09 "Hg10 mi
12:52 PM37 °FMostly cloudy.17 mph54%30.07 "Hg10 mi
11:52 AM36 °FBroken clouds.13 mph64%30.06 "Hg10 mi
10:52 AM35 °FBroken clouds.18 mph67%30.03 "Hg10 mi
9:52 AM33 °FPartly sunny.14 mph78%30.01 "Hg10 mi
8:52 AM32 °FBroken clouds.16 mph79%30.01 "Hg10 mi
7:52 AM32 °FMostly cloudy.12 mph85%29.96 "Hg10 mi
6:52 AM33 °FLight snow. Mostly cloudy.17 mph85%29.90 "Hg9 mi
5:52 AM32 °FLight snow. Ice fog.14 mph96%29.87 "Hg2 mi
Weather by CustomWeather, © 2014

See weather overview